Time,TemperatureF,DewpointF,PressureIn,WindDirection,WindDirectionDegrees,WindSpeedMPH,WindSpeedGustMPH,Humidity,HourlyPrecipIn,Conditions,Clouds,dailyrainin,SoftwareType,DateUTC
2013-01-22 00:01:00,19.8,18.0,29.77,ESE,108,0.0,0.0,93,0.00,,,0.00,weatherlink.com 1.10,2013-01-22 05:01:00,
2013-01-22 00:16:00,20.0,18.0,29.76,ESE,108,0.0,0.0,93,0.00,,,0.00,weatherlink.com 1.10,2013-01-22 05:16:00,
2013-01-22 00:31:00,20.2,19.0,29.75,NW,307,0.0,0.0,93,0.00,,,0.00,weatherlink.com 1.10,2013-01-22 05:31:00,
2013-01-22 00:46:00,20.2,19.0,29.75,NW,315,0.0,1.0,93,0.00,,,0.00,weatherlink.com 1.10,2013-01-22 05:46:00,
2013-01-22 01:01:00,20.3,18.0,29.75,NW,323,0.0,2.0,92,0.00,,,0.00,weatherlink.com 1.10,2013-01-22 06:01:00,
2013-01-22 01:16:00,20.2,18.0,29.73,NW,325,0.0,3.0,92,0.00,,,0.00,weatherlink.com 1.10,2013-01-22 06:16:00,
2013-01-22 01:31:00,20.2,18.0,29.76,NNW,331,0.0,2.0,92,0.00,,,0.00,weatherlink.com 1.10,2013-01-22 06:31:00,
2013-01-22 01:46:00,20.1,18.0,29.75,NNW,331,0.0,0.0,92,0.00,,,0.00,weatherlink.com 1.10,2013-01-22 06:46:00,
2013-01-22 02:01:00,19.3,17.0,29.75,NNW,331,0.0,0.0,92,0.00,,,0.00,weatherlink.com 1.10,2013-01-22 07:01:00,
2013-01-22 02:16:00,19.0,17.0,29.75,NNW,329,0.0,1.0,93,0.00,,,0.00,weatherlink.com 1.10,2013-01-22 07:16:00,
2013-01-22 02:31:00,19.0,17.0,29.74,NNW,329,0.0,0.0,93,0.00,,,0.00,weatherlink.com 1.10,2013-01-22 07:31:00,
2013-01-22 02:46:00,18.7,17.0,29.74,NW,325,0.0,1.0,93,0.00,,,0.00,weatherlink.com 1.10,2013-01-22 07:46:00,
2013-01-22 03:01:00,18.9,18.0,29.73,NW,316,0.0,2.0,94,0.00,,,0.00,weatherlink.com 1.10,2013-01-22 08:01:00,
2013-01-22 03:16:00,18.9,17.0,29.73,NW,314,1.0,4.0,93,0.00,,,0.00,weatherlink.com 1.10,2013-01-22 08:16:00,
2013-01-22 03:31:00,18.6,17.0,29.73,NW,304,0.0,4.0,93,0.00,,,0.00,weatherlink.com 1.10,2013-01-22 08:31:00,
2013-01-22 03:46:00,18.1,16.0,29.73,NW,305,0.0,0.0,93,0.00,,,0.00,weatherlink.com 1.10,2013-01-22 08:46:00,
2013-01-22 04:01:00,17.1,15.0,29.73,NW,305,0.0,0.0,92,0.00,,,0.00,weatherlink.com 1.10,2013-01-22 09:01:00,
2013-01-22 04:16:00,16.8,15.0,29.74,NW,305,0.0,0.0,94,0.00,,,0.00,weatherlink.com 1.10,2013-01-22 09:16:00,
2013-01-22 04:31:00,16.1,15.0,29.73,NW,305,0.0,0.0,94,0.00,,,0.00,weatherlink.com 1.10,2013-01-22 09:31:00,
2013-01-22 04:46:00,16.2,15.0,29.73,NW,305,0.0,1.0,95,0.00,,,0.00,weatherlink.com 1.10,2013-01-22 09:46:00,
2013-01-22 05:01:00,16.4,15.0,29.73,NW,305,0.0,0.0,94,0.00,,,0.00,weatherlink.com 1.10,2013-01-22 10:01:00,
2013-01-22 05:16:00,16.5,15.0,29.74,NW,305,0.0,0.0,94,0.00,,,0.00,weatherlink.com 1.10,2013-01-22 10:16:00,
2013-01-22 05:31:00,16.6,15.0,29.74,NW,305,0.0,0.0,93,0.00,,,0.00,weatherlink.com 1.10,2013-01-22 10:31:00,
2013-01-22 05:46:00,16.4,15.0,29.74,NW,305,0.0,1.0,93,0.00,,,0.00,weatherlink.com 1.10,2013-01-22 10:46:00,
2013-01-22 06:01:00,16.7,15.0,29.75,WNW,298,0.0,0.0,93,0.00,,,0.00,weatherlink.com 1.10,2013-01-22 11:01:00,
2013-01-22 06:16:00,16.6,15.0,29.75,NW,307,0.0,0.0,93,0.00,,,0.00,weatherlink.com 1.10,2013-01-22 11:16:00,
2013-01-22 06:31:00,16.5,15.0,29.76,NW,311,0.0,1.0,93,0.00,,,0.00,weatherlink.com 1.10,2013-01-22 11:31:00,
2013-01-22 06:46:00,16.9,15.0,29.76,NW,325,2.0,4.0,93,0.00,,,0.00,weatherlink.com 1.10,2013-01-22 11:46:00,
2013-01-22 07:01:00,17.3,15.0,29.77,NW,319,3.0,4.0,91,0.00,,,0.00,weatherlink.com 1.10,2013-01-22 12:01:00,
2013-01-22 07:16:00,17.5,14.0,29.77,NW,317,3.0,5.0,87,0.00,,,0.00,weatherlink.com 1.10,2013-01-22 12:16:00,
2013-01-22 07:32:00,17.6,14.0,29.78,NW,319,3.0,7.0,85,0.00,,,0.00,weatherlink.com 1.10,2013-01-22 12:32:00,
2013-01-22 07:47:00,18.1,13.0,29.78,NW,326,6.0,15.0,81,0.00,,,0.00,weatherlink.com 1.10,2013-01-22 12:47:00,
2013-01-22 08:01:00,18.2,12.0,29.79,NW,326,8.0,16.0,78,0.00,,,0.00,weatherlink.com 1.10,2013-01-22 13:01:00,
2013-01-22 08:17:00,18.2,12.0,29.80,NW,326,3.0,13.0,76,0.00,,,0.00,weatherlink.com 1.10,2013-01-22 13:17:00,
2013-01-22 08:32:00,18.3,11.0,29.80,NW,310,4.0,18.0,74,0.00,,,0.00,weatherlink.com 1.10,2013-01-22 13:32:00,
2013-01-22 08:47:00,18.6,11.0,29.81,NW,320,7.0,13.0,72,0.00,,,0.00,weatherlink.com 1.10,2013-01-22 13:47:00,
2013-01-22 09:02:00,18.8,9.0,29.81,NNW,328,9.0,23.0,67,0.00,,,0.00,weatherlink.com 1.10,2013-01-22 14:02:00,
2013-01-22 09:32:00,19.5,8.0,29.82,NW,319,2.0,15.0,60,0.00,,,0.00,weatherlink.com 1.10,2013-01-22 14:32:00,
2013-01-22 09:47:00,19.7,7.0,29.82,NW,319,19.0,20.0,59,0.00,,,0.00,weatherlink.com 1.10,2013-01-22 14:47:00,
2013-01-22 10:02:00,20.3,8.0,29.82,NW,310,4.0,15.0,59,0.00,,,0.00,weatherlink.com 1.10,2013-01-22 15:02:00,
2013-01-22 10:17:00,20.4,7.0,29.83,NW,323,10.0,20.0,56,0.00,,,0.00,weatherlink.com 1.10,2013-01-22 15:17:00,
2013-01-22 10:32:00,20.3,6.0,29.83,WNW,286,5.0,21.0,55,0.00,,,0.00,weatherlink.com 1.10,2013-01-22 15:32:00,
2013-01-22 10:47:00,20.6,6.0,29.83,NNW,347,1.0,14.0,54,0.00,,,0.00,weatherlink.com 1.10,2013-01-22 15:47:00,
2013-01-22 11:02:00,20.5,6.0,29.83,NNW,339,3.0,16.0,53,0.00,,,0.00,weatherlink.com 1.10,2013-01-22 16:02:00,
2013-01-22 11:32:00,20.3,6.0,29.82,NW,319,6.0,15.0,53,0.00,,,0.00,weatherlink.com 1.10,2013-01-22 16:32:00,
2013-01-22 11:47:00,20.6,5.0,29.82,NNW,327,3.0,11.0,52,0.00,,,0.00,weatherlink.com 1.10,2013-01-22 16:47:00,
2013-01-22 12:02:00,19.9,5.0,29.82,West,281,4.0,15.0,52,0.00,,,0.00,weatherlink.com 1.10,2013-01-22 17:02:00,
2013-01-22 12:17:00,19.8,5.0,29.82,NW,311,3.0,17.0,52,0.00,,,0.00,weatherlink.com 1.10,2013-01-22 17:17:00,
2013-01-22 12:32:00,20.6,4.0,29.81,NNW,331,11.0,19.0,48,0.00,,,0.00,weatherlink.com 1.10,2013-01-22 17:32:00,
2013-01-22 12:47:00,20.1,2.0,29.82,WNW,300,4.0,16.0,46,0.00,,,0.00,weatherlink.com 1.10,2013-01-22 17:47:00,
2013-01-22 13:17:00,20.5,2.0,29.82,NW,321,3.0,18.0,44,0.00,,,0.00,weatherlink.com 1.10,2013-01-22 18:17:00,
2013-01-22 13:32:00,20.4,2.0,29.82,NW,308,3.0,14.0,45,0.00,,,0.00,weatherlink.com 1.10,2013-01-22 18:32:00,
2013-01-22 13:47:00,20.2,1.0,29.83,WNW,299,7.0,14.0,44,0.00,,,0.00,weatherlink.com 1.10,2013-01-22 18:47:00,
2013-01-22 14:02:00,19.9,0.0,29.84,NW,312,7.0,15.0,41,0.00,,,0.00,weatherlink.com 1.10,2013-01-22 19:02:00,
2013-01-22 14:17:00,20.3,0.0,29.84,WNW,302,6.0,15.0,41,0.00,,,0.00,weatherlink.com 1.10,2013-01-22 19:17:00,
2013-01-22 14:32:00,20.8,1.0,29.85,North,354,7.0,16.0,43,0.00,,,0.00,weatherlink.com 1.10,2013-01-22 19:32:00,
2013-01-22 14:47:00,19.9,0.0,29.86,NNW,346,6.0,19.0,41,0.00,,,0.00,weatherlink.com 1.10,2013-01-22 19:47:00,
2013-01-22 15:03:00,20.2,-2.0,29.86,WNW,295,3.0,16.0,38,0.00,,,0.00,weatherlink.com 1.10,2013-01-22 20:03:00,
2013-01-22 15:18:00,20.2,-4.0,29.87,NW,307,5.0,18.0,35,0.00,,,0.00,weatherlink.com 1.10,2013-01-22 20:18:00,
2013-01-22 15:33:00,19.8,-1.0,29.88,NW,326,9.0,15.0,40,0.00,,,0.00,weatherlink.com 1.10,2013-01-22 20:33:00,
2013-01-22 15:48:00,19.1,-2.0,29.88,NNW,333,8.0,14.0,39,0.00,,,0.00,weatherlink.com 1.10,2013-01-22 20:48:00,
2013-01-22 16:03:00,18.8,-1.0,29.89,NNW,340,5.0,13.0,42,0.00,,,0.00,weatherlink.com 1.10,2013-01-22 21:03:00,
2013-01-22 16:18:00,18.3,-1.0,29.89,North,351,2.0,11.0,42,0.00,,,0.00,weatherlink.com 1.10,2013-01-22 21:18:00,
2013-01-22 16:33:00,17.9,-1.0,29.90,NNW,336,6.0,9.0,43,0.00,,,0.00,weatherlink.com 1.10,2013-01-22 21:33:00,
2013-01-22 16:48:00,17.5,-3.0,29.90,NNW,339,9.0,13.0,41,0.00,,,0.00,weatherlink.com 1.10,2013-01-22 21:48:00,
2013-01-22 17:03:00,17.2,-2.0,29.91,NW,317,7.0,20.0,42,0.00,,,0.00,weatherlink.com 1.10,2013-01-22 22:03:00,
2013-01-22 17:18:00,16.7,-3.0,29.93,NW,314,3.0,20.0,42,0.00,,,0.00,weatherlink.com 1.10,2013-01-22 22:18:00,
2013-01-22 17:33:00,16.3,-2.0,29.93,NNW,347,3.0,12.0,45,0.00,,,0.00,weatherlink.com 1.10,2013-01-22 22:33:00,
2013-01-22 17:48:00,15.9,-1.0,29.94,NW,313,2.0,19.0,47,0.00,,,0.00,weatherlink.com 1.10,2013-01-22 22:48:00,
2013-01-22 18:03:00,15.6,-2.0,29.95,WNW,287,2.0,13.0,47,0.00,,,0.00,weatherlink.com 1.10,2013-01-22 23:03:00,
2013-01-22 18:19:00,15.4,-2.0,29.96,NW,323,6.0,12.0,47,0.00,,,0.00,weatherlink.com 1.10,2013-01-22 23:19:00,
2013-01-22 18:34:00,14.8,-2.0,29.97,NW,307,2.0,4.0,48,0.00,,,0.00,weatherlink.com 1.10,2013-01-22 23:34:00,
2013-01-22 18:49:00,14.7,-2.0,29.98,NW,319,5.0,7.0,48,0.00,,,0.00,weatherlink.com 1.10,2013-01-22 23:49:00,
2013-01-22 19:04:00,14.4,-2.0,29.98,WNW,303,2.0,6.0,49,0.00,,,0.00,weatherlink.com 1.10,2013-01-23 00:04:00,
2013-01-22 19:19:00,14.4,-2.0,29.99,WNW,298,1.0,7.0,48,0.00,,,0.00,weatherlink.com 1.10,2013-01-23 00:19:00,
2013-01-22 19:34:00,14.5,-2.0,29.99,NW,313,2.0,14.0,49,0.00,,,0.00,weatherlink.com 1.10,2013-01-23 00:34:00,
2013-01-22 19:49:00,14.1,-1.0,29.99,NW,322,12.0,13.0,52,0.00,,,0.00,weatherlink.com 1.10,2013-01-23 00:49:00,
2013-01-22 20:04:00,13.7,-1.0,30.00,NNW,329,4.0,7.0,52,0.00,,,0.00,weatherlink.com 1.10,2013-01-23 01:04:00,
2013-01-22 20:19:00,13.4,-1.0,30.00,NW,306,0.0,7.0,53,0.00,,,0.00,weatherlink.com 1.10,2013-01-23 01:19:00,
2013-01-22 20:34:00,13.1,0.0,30.00,WNW,294,1.0,6.0,55,0.00,,,0.00,weatherlink.com 1.10,2013-01-23 01:34:00,
2013-01-22 20:49:00,12.8,-1.0,30.00,NW,323,1.0,4.0,54,0.00,,,0.00,weatherlink.com 1.10,2013-01-23 01:49:00,
2013-01-22 21:04:00,12.2,-1.0,30.01,NW,311,0.0,1.0,56,0.00,,,0.00,weatherlink.com 1.10,2013-01-23 02:04:00,
2013-01-22 21:19:00,11.9,0.0,30.01,NW,317,1.0,4.0,59,0.00,,,0.00,weatherlink.com 1.10,2013-01-23 02:19:00,
2013-01-22 21:34:00,12.0,0.0,30.01,NW,307,0.0,6.0,60,0.00,,,0.00,weatherlink.com 1.10,2013-01-23 02:34:00,
2013-01-22 21:50:00,11.5,0.0,30.02,NW,319,2.0,2.0,61,0.00,,,0.00,weatherlink.com 1.10,2013-01-23 02:50:00,
2013-01-22 22:05:00,11.1,1.0,30.02,NW,315,0.0,2.0,63,0.00,,,0.00,weatherlink.com 1.10,2013-01-23 03:05:00,
2013-01-22 22:20:00,10.9,1.0,30.03,NW,310,0.0,3.0,65,0.00,,,0.00,weatherlink.com 1.10,2013-01-23 03:20:00,
2013-01-22 22:35:00,10.6,1.0,30.03,NW,309,0.0,3.0,66,0.00,,,0.00,weatherlink.com 1.10,2013-01-23 03:35:00,
2013-01-22 22:50:00,10.3,1.0,30.04,NW,316,0.0,2.0,67,0.00,,,0.00,weatherlink.com 1.10,2013-01-23 03:50:00,
2013-01-22 23:05:00,9.6,1.0,30.04,NW,316,0.0,0.0,69,0.00,,,0.00,weatherlink.com 1.10,2013-01-23 04:05:00,
2013-01-22 23:20:00,9.0,1.0,30.04,NNW,336,2.0,2.0,71,0.00,,,0.00,weatherlink.com 1.10,2013-01-23 04:20:00,
2013-01-22 23:35:00,9.4,1.0,30.04,WNW,299,1.0,4.0,70,0.00,,,0.00,weatherlink.com 1.10,2013-01-23 04:35:00,
2013-01-22 23:50:00,9.8,0.0,30.03,NW,314,0.0,7.0,64,0.00,,,0.00,weatherlink.com 1.10,2013-01-23 04:50:00,